Voltar ao catálogo

STARLINK-36888

AtivoComunicaçõesVLEO
NORAD 68004·PAYLOAD·🇺🇸 United States

Lançado Feb 27, 2026 de Vandenberg Space Force Base

Loading…

Próximas Passagens (próximas 24 horas)

TLE

AtualizadoSource: CelesTrak SupGP

Época: Sep 14, 2026, 20:58 UTC

1 68004C 26039U   26257.87409722  .00058031  00000+0  21020-2 0  2579
2 68004  43.0010  60.8715 0001430 275.0301  48.9919 15.27548151    11

Acompanhe STARLINK-36888 em tempo real com AllMySat

Download on the App Store